[[{"header":{"parameterUnit":"m.s-1","parameterCategory":1,"la1":30.2991,"la2":30.254,"lo1":-89.0895,"lo2":-89.0444,"dy":0.0017,"dx":0.0017,"nx":28,"ny":28,"refTime":"2025-05-30T03:00:00:Z","depth":0,"parameterNumber":2,"parameterNumberName":"U-component_of_WINDS"},"data":[0,0,0,0,0,0,0,0,0,0,0,0,0,0,0,0,0,0,0,0,0,0,0,0,0,0,0,0,0,0,0,0,0,0,0,0,0,0,0,0,0,0,0,0,0,0,0,0,0,0,0,0,0,0,0,0,0,0,-1.8573,-1.8573,0,-1.8573,-1.8573,-1.8573,-1.8528,-1.8527,-1.8525,-1.8524,-1.8525,-1.8526,-1.8527,0,0,0,0,0,0,0,0,0,0,0,0,0,-1.8535,-1.8536,-1.8573,-1.8573,-1.8573,-1.8573,-1.8573,-1.8573,-1.8528,-1.8526,-1.8525,-1.8524,-1.8525,-1.8526,-1.8527,0,0,0,0,0,0,0,0,0,0,0,0,0,-1.8545,-1.8537,-1.8573,-1.8551,-1.8549,-1.8573,-1.8573,-1.8573,-1.8528,-1.8526,-1.8525,-1.8523,-1.8524,-1.8526,-1.8528,-1.8574,0,0,-1.8533,-1.8534,0,0,0,0,0,0,0,0,-1.8545,-1.8547,-1.8554,-1.8552,-1.855,-1.8549,-1.856,-1.8574,-1.8529,-1.8536,-1.8524,-1.8522,-1.8534,-1.8535,-1.8539,-1.8574,-1.8574,-1.8533,-1.8534,-1.8535,-1.8535,0,0,0,0,0,0,0,-1.8544,-1.8546,-1.8573,-1.8554,-1.8552,-1.8541,-1.854,-1.8562,-1.8545,-1.8535,-1.8532,-1.8532,-1.8533,-1.8538,-1.8539,-1.8574,-1.8533,-1.8535,-1.8536,-1.8536,-1.8648,-1.865,0,0,0,0,0,0,-1.8546,-1.8546,-1.8573,-1.8573,-1.8543,-1.8543,-1.8542,-1.8551,-1.8545,-1.8542,-1.8534,-1.853,-1.8536,-1.8537,-1.8539,-1.8593,-1.8535,-1.8536,-1.8537,-1.8646,-1.8649,-1.8651,0,0,0,0,0,0,-1.8546,-1.8549,-1.8573,-1.8559,-1.8561,-1.8546,-1.8556,-1.8552,-1.8556,-1.8544,-1.8541,-1.8542,-1.8534,-1.8536,-1.8566,-1.8593,-1.8537,-1.8539,-1.8644,-1.8647,-1.865,-1.8703,0,0,0,0,0,0,-1.8545,-1.8549,-1.8567,-1.856,-1.8562,-1.86,-1.8557,-1.8553,-1.8559,-1.8555,-1.8551,-1.8548,-1.8533,-1.8563,-1.8568,-1.8594,-1.854,-1.8641,-1.8645,-1.8649,-1.8699,-1.8707,-1.8715,0,0,0,0,0,-1.8544,-1.8582,-1.8568,-1.8571,-1.8583,-1.8602,-1.8603,-1.8585,-1.8562,-1.8579,-1.8571,-1.8548,-1.8589,-1.8567,-1.8571,-1.8599,-1.864,-1.8644,-1.8648,-1.8695,-1.8706,-1.8715,0,0,0,0,0,0,-1.8593,-1.858,-1.8565,-1.8602,-1.8603,-1.8594,-1.8616,-1.8596,-1.8605,-1.86,-1.8577,-1.8576,-1.861,-1.8607,-1.8582,-1.8644,-1.861,-1.8616,-1.8644,-1.8654,-1.8662,-1.8663,-1.8541,0,0,0,0,0,-1.8608,-1.8624,-1.8612,-1.8646,-1.8647,-1.8632,-1.8639,-1.8624,-1.8625,-1.8626,-1.862,-1.8622,-1.8635,-1.8644,-1.8656,-1.8698,-1.8697,-1.8719,-1.8727,-1.8733,-1.8739,-1.8761,-1.8771,-1.8665,-1.8665,-1.8665,0,0,-1.8639,-1.8634,-1.8646,-1.8655,-1.8655,-1.8672,-1.8632,-1.8652,-1.8665,-1.8629,-1.8656,-1.8652,-1.8653,-1.8689,-1.8705,-1.8688,-1.8768,-1.8739,-1.8744,-1.8746,-1.8767,-1.8777,-1.8786,-1.8668,-1.8667,-1.8667,0,0,-1.8705,-1.8703,-1.8731,-1.8731,-1.8731,-1.872,-1.8727,-1.8721,-1.8717,-1.8744,-1.8717,-1.8732,-1.8755,-1.8757,-1.8761,-1.8828,-1.8808,-1.8832,-1.8875,-1.8897,-1.8905,-1.8913,-1.8938,-1.8947,-1.8838,-1.8838,-1.8838,0,-1.8745,-1.8769,-1.8748,-1.877,-1.8775,-1.8743,-1.8771,-1.8773,-1.8776,-1.8781,-1.8762,-1.879,-1.8788,-1.8825,-1.8841,-1.8845,-1.8853,-1.8833,-1.8906,-1.8913,-1.892,-1.8943,-1.8952,-1.8841,-1.884,-1.884,-1.884,0,-1.8818,-1.8836,-1.8858,-1.8863,-1.887,-1.8896,-1.8878,-1.8889,-1.8874,-1.8865,-1.8894,-1.889,-1.8901,-1.8908,-1.8893,-1.8943,-1.8932,-1.891,-1.8876,-1.8933,-1.8955,-1.8964,-1.8845,-1.8844,-1.8843,-1.8842,0,0,-1.8916,-1.8908,-1.8917,-1.8918,-1.8915,-1.8929,-1.8953,-1.8963,-1.8972,-1.8976,-1.8996,-1.9016,-1.8995,-1.9,-1.8985,-1.9005,-1.9059,-1.898,-1.898,-1.8996,-1.9114,-1.9132,-1.9143,-1.9045,-1.9047,-1.9048,-1.9114,0,-1.8981,-1.9021,-1.9002,-1.9045,-1.9061,-1.9031,-1.9051,-1.9052,-1.9045,-1.9058,-1.905,-1.9065,-1.9036,-1.9038,-1.9056,-1.9049,-1.9083,-1.9044,-1.9064,-1.9065,-1.9066,-1.9154,-1.9172,-1.9235,-1.9123,-1.9124,-1.9125,0,-1.9062,-1.9069,-1.9113,-1.9107,-1.9114,-1.9133,-1.9141,-1.9153,-1.9154,-1.9147,-1.9152,-1.9133,-1.9156,-1.9122,-1.9154,-1.9128,-1.9135,-1.9133,-1.9135,-1.9137,-1.9099,-1.9159,-1.9255,-1.9265,-1.9138,-1.9137,-1.9136,0,-1.913,-1.915,-1.9179,-1.9182,-1.9176,-1.919,-1.9188,-1.9187,-1.9194,-1.9201,-1.9206,-1.9215,-1.9221,-1.9229,-1.9213,-1.9189,-1.9248,-1.9212,-1.9244,-1.9244,-1.9259,-1.9258,-1.9358,-1.9262,-1.9261,-1.9261,-1.9261,0,-1.9205,-1.9234,-1.921,-1.9228,-1.9259,-1.9238,-1.9269,-1.9264,-1.9263,-1.928,-1.9253,-1.927,-1.9248,-1.9262,-1.925,-1.9279,-1.9281,-1.9277,-1.9274,-1.928,-1.9281,-1.9285,-1.9281,-1.9264,-1.9263,-1.9263,-1.9262,0,-1.9287,-1.9272,-1.9302,-1.9294,-1.9293,-1.9316,-1.9309,-1.9326,-1.9316,-1.9338,-1.9342,-1.9327,-1.9343,-1.9328,-1.9342,-1.9334,-1.9374,-1.9363,-1.9374,-1.9371,-1.9404,-1.9402,-1.9511,-1.9525,-1.9419,-1.942,-1.9421,0,-1.9336,-1.9358,-1.9352,-1.9361,-1.9361,-1.9376,-1.9383,-1.9363,-1.9372,-1.9374,-1.9391,-1.9404,-1.9414,-1.944,-1.9431,-1.9442,-1.9433,-1.947,-1.9434,-1.944,-1.9435,-1.9434,-1.9437,-1.9478,-1.9479,-1.948,-1.9481,0,-1.9426,-1.9418,-1.9429,-1.9438,-1.9448,-1.9454,-1.9458,-1.9467,-1.9446,-1.9457,-1.9473,-1.948,-1.9495,-1.9509,-1.9518,-1.9516,-1.9496,-1.9492,-1.9501,-1.9508,-1.9514,-1.9512,-1.9395,-1.949,-1.9489,-1.9489,-1.9488,-1.9488,-1.9494,-1.9511,-1.951,-1.9524,-1.9525,-1.9529,-1.9545,-1.9537,-1.955,-1.956,-1.9547,-1.9567,-1.9567,-1.9576,-1.9577,-1.9592,-1.9577,-1.9588,-1.9591,-1.9595,-1.96,-1.951,-1.9594,-1.9593,-1.9593,-1.9593,-1.9593,0,-1.9583,-1.9581,-1.9593,-1.96,-1.9611,-1.959,-1.9594,-1.9604,-1.9622,-1.9623,-1.9633,-1.9652,-1.9665,-1.9657,-1.9668,-1.9682,-1.9673,-1.9686,-1.9686,-1.9686,-1.9613,-1.9605,-1.9693,-1.9693,-1.9693,-1.9693,-1.9693,-1.9693,-1.9631,-1.966,-1.9651,-1.9681,-1.9678,-1.9697,-1.9701,-1.9705,-1.9706,-1.9728,-1.9739,-1.9733,-1.9731,-1.9742,-1.9754,-1.9751,-1.9757,-1.9774,-1.9768,-1.9701,-1.9691,-1.9681,-1.9674,-1.9775,-1.9775,-1.984,-1.984,-1.9841]},{"header":{"parameterUnit":"m.s-1","parameterCategory":1,"la1":30.2991,"la2":30.254,"lo1":-89.0895,"lo2":-89.0444,"dy":0.0017,"dx":0.0017,"nx":28,"ny":28,"refTime":"2025-05-30T03:00:00:Z","depth":0,"parameterNumber":3,"parameterNumberName":"V-component_of_WINDS"},"data":[0,0,0,0,0,0,0,0,0,0,0,0,0,0,0,0,0,0,0,0,0,0,0,0,0,0,0,0,0,0,0,0,0,0,0,0,0,0,0,0,0,0,0,0,0,0,0,0,0,0,0,0,0,0,0,0,0,0,-3.6654,-3.6654,0,-3.6652,-3.6652,-3.6652,-3.6608,-3.6606,-3.6605,-3.6604,-3.6602,-3.6603,-3.6604,0,0,0,0,0,0,0,0,0,0,0,0,0,-3.6618,-3.6619,-3.6654,-3.6654,-3.6654,-3.6652,-3.6652,-3.6652,-3.6608,-3.6606,-3.6605,-3.6604,-3.6602,-3.6603,-3.6604,0,0,0,0,0,0,0,0,0,0,0,0,0,-3.6627,-3.6619,-3.6654,-3.6632,-3.663,-3.6652,-3.6652,-3.6652,-3.6608,-3.6606,-3.6605,-3.6603,-3.6601,-3.6603,-3.6604,-3.6648,0,0,-3.6609,-3.6609,0,0,0,0,0,0,0,0,-3.6626,-3.6628,-3.6635,-3.6633,-3.6631,-3.6628,-3.6639,-3.6651,-3.6609,-3.6616,-3.6604,-3.6602,-3.6612,-3.6613,-3.6616,-3.6648,-3.6648,-3.6609,-3.661,-3.661,-3.6611,0,0,0,0,0,0,0,-3.6626,-3.6628,-3.6653,-3.6635,-3.6633,-3.6621,-3.6621,-3.6641,-3.6624,-3.6615,-3.6612,-3.6613,-3.6611,-3.6615,-3.6616,-3.6648,-3.6609,-3.661,-3.6611,-3.6612,-3.6716,-3.6718,0,0,0,0,0,0,-3.6628,-3.6628,-3.6653,-3.6653,-3.6624,-3.6623,-3.6623,-3.6631,-3.6623,-3.6621,-3.6614,-3.6611,-3.6613,-3.6614,-3.6615,-3.6667,-3.661,-3.6612,-3.6613,-3.6715,-3.6717,-3.6719,0,0,0,0,0,0,-3.6628,-3.6631,-3.6653,-3.664,-3.6642,-3.6626,-3.6636,-3.6632,-3.6636,-3.6623,-3.6619,-3.6621,-3.6612,-3.6613,-3.664,-3.6666,-3.6613,-3.6614,-3.6712,-3.6715,-3.6718,-3.677,0,0,0,0,0,0,-3.6627,-3.6631,-3.6648,-3.664,-3.6643,-3.6679,-3.6637,-3.6633,-3.6639,-3.6634,-3.6629,-3.6626,-3.661,-3.6638,-3.6642,-3.6667,-3.6615,-3.671,-3.6714,-3.6717,-3.6766,-3.6775,-3.6782,0,0,0,0,0,-3.6626,-3.6662,-3.6649,-3.6652,-3.6663,-3.668,-3.6682,-3.6663,-3.6641,-3.6658,-3.6649,-3.6626,-3.6663,-3.6642,-3.6645,-3.6671,-3.6708,-3.6713,-3.6717,-3.6763,-3.6773,-3.6782,0,0,0,0,0,0,-3.6672,-3.6661,-3.6646,-3.6681,-3.6682,-3.6673,-3.6693,-3.6674,-3.6682,-3.6677,-3.6654,-3.6653,-3.6684,-3.668,-3.6657,-3.6714,-3.6682,-3.6687,-3.6715,-3.6725,-3.6733,-3.6733,-3.6616,0,0,0,0,0,-3.6687,-3.6702,-3.6691,-3.6723,-3.6725,-3.6709,-3.6716,-3.6702,-3.6702,-3.6702,-3.6695,-3.6696,-3.6708,-3.6716,-3.6726,-3.6765,-3.6764,-3.6785,-3.6793,-3.6799,-3.6804,-3.6825,-3.6835,-3.6733,-3.6733,-3.6733,0,0,-3.6717,-3.6712,-3.6723,-3.6733,-3.6732,-3.6748,-3.671,-3.6728,-3.674,-3.6705,-3.673,-3.6726,-3.6725,-3.6759,-3.6773,-3.6757,-3.6832,-3.6805,-3.681,-3.6811,-3.6831,-3.6841,-3.6849,-3.6736,-3.6735,-3.6735,0,0,-3.678,-3.6778,-3.6805,-3.6805,-3.6805,-3.6794,-3.6801,-3.6794,-3.679,-3.6815,-3.6789,-3.6803,-3.6823,-3.6824,-3.6827,-3.6892,-3.6871,-3.6895,-3.6936,-3.6957,-3.6965,-3.6972,-3.6996,-3.7005,-3.69,-3.69,-3.69,0,-3.6817,-3.6841,-3.6821,-3.6842,-3.6847,-3.6816,-3.6843,-3.6844,-3.6847,-3.6851,-3.6832,-3.6858,-3.6855,-3.6889,-3.6905,-3.6908,-3.6915,-3.6896,-3.6966,-3.6973,-3.6979,-3.7001,-3.701,-3.6903,-3.6903,-3.6903,-3.6902,0,-3.6887,-3.6904,-3.6926,-3.693,-3.6938,-3.6962,-3.6945,-3.6955,-3.694,-3.6932,-3.6958,-3.6954,-3.6963,-3.697,-3.6955,-3.7002,-3.6992,-3.697,-3.6937,-3.6992,-3.7013,-3.7021,-3.6908,-3.6907,-3.6906,-3.6905,0,0,-3.698,-3.6973,-3.6981,-3.6983,-3.6981,-3.6993,-3.7016,-3.7025,-3.7034,-3.7037,-3.7056,-3.7074,-3.7054,-3.7058,-3.7043,-3.7062,-3.7114,-3.7037,-3.7037,-3.7052,-3.7166,-3.7183,-3.7193,-3.71,-3.7101,-3.7103,-3.7166,0,-3.7041,-3.708,-3.7063,-3.7103,-3.7119,-3.709,-3.711,-3.711,-3.7103,-3.7115,-3.7107,-3.7121,-3.7093,-3.7095,-3.7112,-3.7104,-3.7136,-3.7099,-3.7117,-3.7118,-3.7119,-3.7203,-3.7221,-3.7281,-3.7174,-3.7175,-3.7176,0,-3.7118,-3.7125,-3.7168,-3.7163,-3.7169,-3.7187,-3.7195,-3.7207,-3.7207,-3.72,-3.7205,-3.7186,-3.7208,-3.7175,-3.7205,-3.718,-3.7187,-3.7184,-3.7186,-3.7187,-3.7151,-3.7208,-3.73,-3.7309,-3.7188,-3.7187,-3.7186,0,-3.7183,-3.7202,-3.7231,-3.7233,-3.7228,-3.7242,-3.724,-3.7238,-3.7245,-3.7252,-3.7256,-3.7265,-3.727,-3.7277,-3.7261,-3.7238,-3.7294,-3.7259,-3.7289,-3.729,-3.7302,-3.7302,-3.7398,-3.7306,-3.7305,-3.7305,-3.7305,0,-3.7254,-3.7281,-3.726,-3.7277,-3.7307,-3.7287,-3.7317,-3.7312,-3.7311,-3.7327,-3.7302,-3.7317,-3.7295,-3.7308,-3.7296,-3.7323,-3.7325,-3.7321,-3.7317,-3.7324,-3.7324,-3.7328,-3.7324,-3.7308,-3.7307,-3.7307,-3.7306,0,-3.733,-3.7317,-3.7346,-3.7339,-3.7338,-3.7361,-3.7355,-3.737,-3.7362,-3.7382,-3.7386,-3.7372,-3.7386,-3.7371,-3.7384,-3.7376,-3.7413,-3.7403,-3.7413,-3.7411,-3.7442,-3.7439,-3.7544,-3.7556,-3.7456,-3.7457,-3.7458,0,-3.7377,-3.7397,-3.7393,-3.7402,-3.7403,-3.7417,-3.7425,-3.7406,-3.7414,-3.7416,-3.7432,-3.7444,-3.7453,-3.7478,-3.7469,-3.7479,-3.7469,-3.7505,-3.7471,-3.7477,-3.7471,-3.747,-3.7472,-3.7512,-3.7514,-3.7514,-3.7515,0,-3.7461,-3.7454,-3.7465,-3.7475,-3.7484,-3.7491,-3.7495,-3.7504,-3.7484,-3.7495,-3.751,-3.7517,-3.7531,-3.7544,-3.7551,-3.7549,-3.753,-3.7526,-3.7534,-3.7541,-3.7546,-3.7544,-3.7433,-3.7524,-3.7523,-3.7522,-3.7522,-3.7522,-3.7525,-3.7542,-3.7542,-3.7556,-3.7557,-3.7562,-3.7577,-3.757,-3.7582,-3.7592,-3.758,-3.7599,-3.7599,-3.7607,-3.7608,-3.7622,-3.7606,-3.7617,-3.762,-3.7623,-3.7628,-3.7543,-3.7623,-3.7623,-3.7622,-3.7622,-3.7622,0,-3.7608,-3.7607,-3.762,-3.7627,-3.7638,-3.7619,-3.7623,-3.7633,-3.765,-3.7652,-3.7661,-3.7679,-3.7691,-3.7683,-3.7694,-3.7707,-3.7698,-3.771,-3.771,-3.771,-3.7641,-3.7634,-3.7717,-3.7717,-3.7717,-3.7717,-3.7717,-3.7717,-3.7653,-3.7681,-3.7674,-3.7703,-3.7701,-3.772,-3.7724,-3.7728,-3.773,-3.775,-3.7761,-3.7756,-3.7754,-3.7764,-3.7775,-3.7772,-3.7778,-3.7794,-3.7788,-3.7724,-3.7714,-3.7705,-3.7699,-3.7795,-3.7795,-3.7855,-3.7856,-3.7856]}]]